,,Stat6,,Stat2,,Stat8,,Stat9,,Stat10,,Wind1,,Wind1,
time,status,PA1M_AVG,status,PR1M_SUM,status,RH1M_AVG,status,SR1M_AVG,status,TA1M_AVG,status,W1dAve1m,status,W1sAve1m,
2005-07-08, 00:00:00,VALID,919.076,VALID,0,VALID,100,VALID,-0.118866,VALID,18.1353,VALID,136,VALID,0.799361,
2005-07-08, 00:01:00,VALID,919.078,VALID,0,VALID,100,VALID,-0.101885,VALID,18.1413,VALID,131,VALID,0.993037,
2005-07-08, 00:02:00,VALID,919.086,VALID,0,VALID,100,VALID,-0.101885,VALID,18.145,VALID,128,VALID,0.926711,
2005-07-08, 00:03:00,VALID,919.08,VALID,0,VALID,100,VALID,-0.101885,VALID,18.1321,VALID,124,VALID,0.575707,
2005-07-08, 00:04:00,VALID,919.077,VALID,0,VALID,100,VALID,-0.101885,VALID,18.0903,VALID,105,VALID,0.671474,
2005-07-08, 00:05:00,VALID,919.07,VALID,0,VALID,100,VALID,-0.101885,VALID,17.9605,VALID,104,VALID,0.490916,
2005-07-08, 00:06:00,VALID,919.068,VALID,0,VALID,100,VALID,-0.101885,VALID,17.8614,VALID,103,VALID,0.542188,
2005-07-08, 00:07:00,VALID,919.056,VALID,0,VALID,100,VALID,-0.101885,VALID,17.7991,VALID,103,VALID,0.357887,
2005-07-08, 00:08:00,VALID,919.041,VALID,0,VALID,100,VALID,-0.0849042,VALID,17.8024,VALID,103,VALID,0.432813,
2005-07-08, 00:09:00,VALID,919.041,VALID,0,VALID,100,VALID,-0.0849042,VALID,17.822,VALID,103,VALID,0.246354,
2005-07-08, 00:10:00,VALID,919.039,VALID,0,VALID,100,VALID,-0.101885,VALID,17.8162,VALID,103,VALID,0.498476,
2005-07-08, 00:11:00,VALID,919.047,VALID,0,VALID,100,VALID,-0.101885,VALID,17.7994,VALID,109,VALID,0.753196,
2005-07-08, 00:12:00,VALID,919.031,VALID,0,VALID,100,VALID,-0.0169808,VALID,17.8144,VALID,115,VALID,0.781836,
2005-07-08, 00:13:00,VALID,919.025,VALID,0,VALID,100,VALID,0.0169808,VALID,17.8367,VALID,119,VALID,0.659766,
2005-07-08, 00:14:00,VALID,919.015,VALID,0,VALID,100,VALID,0,VALID,17.8499,VALID,119,VALID,0.240473,
2005-07-08, 00:15:00,VALID,919.002,VALID,0,VALID,100,VALID,0.0169808,VALID,17.8236,VALID,119,VALID,0.367001,
2005-07-08, 00:16:00,VALID,919.001,VALID,0,VALID,100,VALID,0,VALID,17.7987,VALID,119,VALID,0.407422,
2005-07-08, 00:17:00,VALID,919.007,VALID,0,VALID,100,VALID,0,VALID,17.7795,VALID,119,VALID,0.386265,
2005-07-08, 00:18:00,VALID,919.015,VALID,0,VALID,100,VALID,0,VALID,17.7787,VALID,120,VALID,0.671503,
2005-07-08, 00:19:00,VALID,919.01,VALID,0,VALID,100,VALID,-0.0509425,VALID,17.8307,VALID,128,VALID,0.78853,
2005-07-08, 00:20:00,VALID,919.013,VALID,0,VALID,100,VALID,0.0169808,VALID,17.8789,VALID,129,VALID,0.731424,
2005-07-08, 00:21:00,VALID,919.014,VALID,0,VALID,100,VALID,0.0169808,VALID,17.9207,VALID,142,VALID,0.71224,
2005-07-08, 00:22:00,VALID,919.017,VALID,0,VALID,100,VALID,0.0169808,VALID,17.9368,VALID,136,VALID,0.729861,
2005-07-08, 00:23:00,VALID,919.008,VALID,0,VALID,100,VALID,0.0169808,VALID,17.943,VALID,136,VALID,0.690589,
2005-07-08, 00:24:00,VALID,918.992,VALID,0,VALID,100,VALID,0.0339617,VALID,17.9463,VALID,137,VALID,0.750781,
2005-07-08, 00:25:00,VALID,918.994,VALID,0,VALID,100,VALID,0.0169808,VALID,17.9695,VALID,138,VALID,0.757118,
2005-07-08, 00:26:00,VALID,918.986,VALID,0,VALID,100,VALID,0,VALID,17.9661,VALID,138,VALID,0.523633,
2005-07-08, 00:27:00,VALID,918.978,VALID,0,VALID,100,VALID,0,VALID,17.9721,VALID,141,VALID,0.452381,
2005-07-08, 00:28:00,VALID,918.991,VALID,0,VALID,100,VALID,0,VALID,17.9794,VALID,158,VALID,0.666243,
2005-07-08, 00:29:00,VALID,918.985,VALID,0,VALID,100,VALID,0,VALID,17.9827,VALID,166,VALID,0.860283,
2005-07-08, 00:30:00,VALID,918.975,VALID,0,VALID,100,VALID,0,VALID,17.9596,VALID,155,VALID,0.72061,
2005-07-08, 00:31:00,VALID,918.954,VALID,0,VALID,100,VALID,0.0169808,VALID,17.9497,VALID,144,VALID,0.797222,
2005-07-08, 00:32:00,VALID,918.95,VALID,0,VALID,100,VALID,0.0169808,VALID,17.9529,VALID,148,VALID,0.778963,
2005-07-08, 00:33:00,VALID,918.931,VALID,0,VALID,100,VALID,0.0339617,VALID,17.9628,VALID,148,VALID,0.540264,
2005-07-08, 00:34:00,VALID,918.923,VALID,0,VALID,100,VALID,0,VALID,17.9635,VALID,148,VALID,0.463415,
2005-07-08, 00:35:00,VALID,918.924,VALID,0,VALID,100,VALID,0,VALID,17.9174,VALID,143,VALID,0.483994,
2005-07-08, 00:36:00,VALID,918.933,VALID,0,VALID,100,VALID,0,VALID,17.8987,VALID,135,VALID,0.422238,
2005-07-08, 00:37:00,VALID,918.939,VALID,0,VALID,100,VALID,0.0339617,VALID,17.8755,VALID,132,VALID,0.688802,
2005-07-08, 00:38:00,VALID,918.926,VALID,0,VALID,100,VALID,0.0169808,VALID,17.8757,VALID,143,VALID,0.633743,
2005-07-08, 00:39:00,VALID,918.92,VALID,0,VALID,100,VALID,0.0169808,VALID,17.8856,VALID,144,VALID,0.647866,
2005-07-08, 00:40:00,VALID,918.891,VALID,0,VALID,100,VALID,0.0169808,VALID,17.9015,VALID,144,VALID,0.598011,
2005-07-08, 00:41:00,VALID,918.866,VALID,0,VALID,100,VALID,-0.0339617,VALID,17.9112,VALID,142,VALID,0.646621,
2005-07-08, 00:42:00,VALID,918.85,VALID,0,VALID,100,VALID,0,VALID,17.9114,VALID,134,VALID,0.533203,
2005-07-08, 00:43:00,VALID,918.823,VALID,0,VALID,100,VALID,0,VALID,17.9112,VALID,131,VALID,0.545486,
2005-07-08, 00:44:00,VALID,918.82,VALID,0,VALID,100,VALID,-0.0169808,VALID,17.9022,VALID,130,VALID,0.512005,
2005-07-08, 00:45:00,VALID,918.817,VALID,0,VALID,100,VALID,0,VALID,17.8789,VALID,130,VALID,0.497275,
2005-07-08, 00:46:00,VALID,918.811,VALID,0,VALID,100,VALID,0,VALID,17.8755,VALID,129,VALID,0.521019,
2005-07-08, 00:47:00,VALID,918.786,VALID,0,VALID,100,VALID,0.0169808,VALID,17.8467,VALID,124,VALID,0.606517,
2005-07-08, 00:48:00,VALID,918.763,VALID,0,VALID,100,VALID,0.0169808,VALID,17.8277,VALID,121,VALID,0.668423,
2005-07-08, 00:49:00,VALID,918.745,VALID,0,VALID,100,VALID,0,VALID,17.8277,VALID,121,VALID,0.61795,
2005-07-08, 00:50:00,VALID,918.734,VALID,0,VALID,100,VALID,0,VALID,17.8142,VALID,121,VALID,0.550604,
2005-07-08, 00:51:00,VALID,918.725,VALID,0,VALID,100,VALID,0.0169808,VALID,17.8047,VALID,121,VALID,0.522461,
2005-07-08, 00:52:00,VALID,918.712,VALID,0,VALID,100,VALID,0,VALID,17.7823,VALID,121,VALID,0.511209,
2005-07-08, 00:53:00,VALID,918.711,VALID,0,VALID,100,VALID,0.0339617,VALID,17.7627,VALID,121,VALID,0.829268,
2005-07-08, 00:54:00,VALID,918.7,VALID,0,VALID,100,VALID,0,VALID,17.7528,VALID,116,VALID,0.790128,
2005-07-08, 00:55:00,VALID,918.721,VALID,0,VALID,100,VALID,0,VALID,17.7341,VALID,106,VALID,0.500174,
2005-07-08, 00:56:00,VALID,918.722,VALID,0,VALID,100,VALID,0,VALID,17.718,VALID,144,VALID,0.706555,
2005-07-08, 00:57:00,VALID,918.714,VALID,0,VALID,100,VALID,-0.0169808,VALID,17.7046,VALID,140,VALID,0.771577,
2005-07-08, 00:58:00,VALID,918.715,VALID,0,VALID,100,VALID,0,VALID,17.718,VALID,145,VALID,0.575,
2005-07-08, 00:59:00,VALID,918.717,VALID,0,VALID,100,VALID,0,VALID,17.7311,VALID,133,VALID,0.777158,
2005-07-08, 01:00:00,VALID,918.699,VALID,0,VALID,100,VALID,-0.0339617,VALID,17.7182,VALID,127,VALID,0.591751,
2005-07-08, 01:01:00,VALID,918.68,VALID,0,VALID,100,VALID,-0.0169808,VALID,17.6956,VALID,123,VALID,0.770211,
2005-07-08, 01:02:00,VALID,918.661,VALID,0,VALID,100,VALID,-0.0169808,VALID,17.6959,VALID,127,VALID,0.295759,
2005-07-08, 01:03:00,VALID,918.634,VALID,0,VALID,100,VALID,-0.0169808,VALID,17.6212,VALID,127,VALID,0.390625,
2005-07-08, 01:04:00,VALID,918.606,VALID,0,VALID,100,VALID,-0.0169808,VALID,17.6085,VALID,127,VALID,0.576297,
2005-07-08, 01:05:00,VALID,918.591,VALID,0,VALID,100,VALID,0,VALID,17.618,VALID,127,VALID,0.582508,
2005-07-08, 01:06:00,VALID,918.586,VALID,0,VALID,100,VALID,-0.0339617,VALID,17.6053,VALID,127,VALID,0.458576,
2005-07-08, 01:07:00,VALID,918.571,VALID,0,VALID,100,VALID,-0.0509425,VALID,17.6182,VALID,123,VALID,0.855382,
2005-07-08, 01:08:00,VALID,918.556,VALID,0,VALID,100,VALID,-0.0339617,VALID,17.6212,VALID,120,VALID,0.63457,
2005-07-08, 01:09:00,VALID,918.568,VALID,0,VALID,100,VALID,-0.0339617,VALID,17.6216,VALID,120,VALID,0.23117,
2005-07-08, 01:10:00,VALID,918.557,VALID,0,VALID,100,VALID,0,VALID,17.6085,VALID,120,VALID,0.0706522,
2005-07-08, 01:11:00,VALID,918.552,VALID,0,VALID,100,VALID,0,VALID,17.5728,VALID,120,VALID,0.434837,
2005-07-08, 01:12:00,VALID,918.575,VALID,0,VALID,100,VALID,0.0339617,VALID,17.5401,VALID,120,VALID,0.48712,
2005-07-08, 01:13:00,VALID,918.593,VALID,0,VALID,100,VALID,0.0849042,VALID,17.5428,VALID,120,VALID,0.391797,
2005-07-08, 01:14:00,VALID,918.621,VALID,0,VALID,100,VALID,0.101885,VALID,17.5458,VALID,120,VALID,0.270198,
2005-07-08, 01:15:00,VALID,918.643,VALID,0,VALID,100,VALID,0.0679233,VALID,17.5458,VALID,120,VALID,0.0929878,
2005-07-08, 01:16:00,VALID,918.646,VALID,0,VALID,100,VALID,0.0849042,VALID,17.5491,VALID,120,VALID,0,
2005-07-08, 01:17:00,VALID,918.643,VALID,0,VALID,100,VALID,0.101885,VALID,17.5299,VALID,120,VALID,0,
2005-07-08, 01:18:00,VALID,918.635,VALID,0,VALID,100,VALID,0.101885,VALID,17.4783,VALID,120,VALID,0.259673,
2005-07-08, 01:19:00,VALID,918.629,VALID,0,VALID,100,VALID,0.0509425,VALID,17.3748,VALID,120,VALID,0.802401,
2005-07-08, 01:20:00,VALID,918.631,VALID,0,VALID,100,VALID,0.0849042,VALID,17.3395,VALID,125,VALID,0.78561,
2005-07-08, 01:21:00,VALID,918.627,VALID,0,VALID,100,VALID,0.0849042,VALID,17.343,VALID,142,VALID,0.689631,
2005-07-08, 01:22:00,VALID,918.618,VALID,0,VALID,100,VALID,0.101885,VALID,17.3458,VALID,148,VALID,0.852307,
2005-07-08, 01:23:00,VALID,918.619,VALID,0,VALID,100,VALID,0.0849042,VALID,17.3524,VALID,145,VALID,0.981213,
2005-07-08, 01:24:00,VALID,918.613,VALID,0,VALID,100,VALID,0.0849042,VALID,17.3654,VALID,136,VALID,1.07757,
2005-07-08, 01:25:00,VALID,918.604,VALID,0,VALID,100,VALID,0.0679233,VALID,17.3847,VALID,133,VALID,1.16853,
2005-07-08, 01:26:00,VALID,918.605,VALID,0,VALID,100,VALID,0.0679233,VALID,17.4073,VALID,131,VALID,0.777166,
2005-07-08, 01:27:00,VALID,918.596,VALID,0,VALID,100,VALID,0.0169808,VALID,17.4082,VALID,122,VALID,0.387847,
2005-07-08, 01:28:00,VALID,918.579,VALID,0,VALID,100,VALID,-0.0169808,VALID,17.3862,VALID,115,VALID,0.680556,
2005-07-08, 01:29:00,VALID,918.568,VALID,0,VALID,100,VALID,0,VALID,17.3989,VALID,109,VALID,0.885174,
2005-07-08, 01:30:00,VALID,918.546,VALID,0,VALID,100,VALID,0,VALID,17.4344,VALID,112,VALID,0.840021,
2005-07-08, 01:31:00,VALID,918.531,VALID,0,VALID,100,VALID,-0.0169808,VALID,17.4538,VALID,123,VALID,0.588605,
2005-07-08, 01:32:00,VALID,918.507,VALID,0,VALID,100,VALID,0,VALID,17.4568,VALID,119,VALID,0.528525,
2005-07-08, 01:33:00,VALID,918.477,VALID,0,VALID,100,VALID,-0.0169808,VALID,17.4469,VALID,120,VALID,0.643787,
2005-07-08, 01:34:00,VALID,918.442,VALID,0,VALID,100,VALID,-0.0339617,VALID,17.4443,VALID,120,VALID,0.587728,
2005-07-08, 01:35:00,VALID,918.42,VALID,0,VALID,100,VALID,-0.0169808,VALID,17.4153,VALID,112,VALID,0.5623,
2005-07-08, 01:36:00,VALID,918.394,VALID,0,VALID,100,VALID,-0.0509425,VALID,17.4121,VALID,112,VALID,0.787068,
2005-07-08, 01:37:00,VALID,918.379,VALID,0,VALID,100,VALID,-0.0509425,VALID,17.3962,VALID,115,VALID,0.739769,
2005-07-08, 01:38:00,VALID,918.382,VALID,0,VALID,100,VALID,-0.0169808,VALID,17.386,VALID,116,VALID,0.250572,
2005-07-08, 01:39:00,VALID,918.392,VALID,0,VALID,100,VALID,-0.0169808,VALID,17.3763,VALID,127,VALID,0.585938,
2005-07-08, 01:40:00,VALID,918.401,VALID,0,VALID,100,VALID,-0.0509425,VALID,17.3768,VALID,136,VALID,1.01786,
2005-07-08, 01:41:00,VALID,918.393,VALID,0,VALID,100,VALID,-0.0169808,VALID,17.4153,VALID,153,VALID,0.97832,
2005-07-08, 01:42:00,VALID,918.388,VALID,0,VALID,100,VALID,-0.0339617,VALID,17.4506,VALID,146,VALID,0.476372,
2005-07-08, 01:43:00,VALID,918.387,VALID,0,VALID,100,VALID,-0.0169808,VALID,17.4669,VALID,135,VALID,0.394141,
2005-07-08, 01:44:00,VALID,918.392,VALID,0,VALID,100,VALID,-0.0169808,VALID,17.4504,VALID,132,VALID,0.566051,
2005-07-08, 01:45:00,VALID,918.377,VALID,0,VALID,100,VALID,-0.0169808,VALID,17.4704,VALID,133,VALID,0.829942,
2005-07-08, 01:46:00,VALID,918.366,VALID,0,VALID,100,VALID,-0.0169808,VALID,17.4828,VALID,142,VALID,0.782292,
2005-07-08, 01:47:00,VALID,918.357,VALID,0,VALID,100,VALID,-0.0169808,VALID,17.4766,VALID,146,VALID,0.441051,
2005-07-08, 01:48:00,VALID,918.349,VALID,0,VALID,100,VALID,-0.0339617,VALID,17.4471,VALID,146,VALID,0.168576,
2005-07-08, 01:49:00,VALID,918.336,VALID,0,VALID,100,VALID,0,VALID,17.4319,VALID,146,VALID,0.0555959,
2005-07-08, 01:50:00,VALID,918.315,VALID,0,VALID,100,VALID,-0.0339617,VALID,17.3798,VALID,146,VALID,0.162427,
2005-07-08, 01:51:00,VALID,918.312,VALID,0,VALID,100,VALID,-0.0509425,VALID,17.3477,VALID,146,VALID,0.48952,
2005-07-08, 01:52:00,VALID,918.316,VALID,0,VALID,100,VALID,-0.0169808,VALID,17.315,VALID,143,VALID,0.707304,
2005-07-08, 01:53:00,VALID,918.336,VALID,0,VALID,100,VALID,0,VALID,17.3217,VALID,141,VALID,0.618331,
2005-07-08, 01:54:00,VALID,918.352,VALID,0,VALID,100,VALID,0,VALID,17.2959,VALID,142,VALID,0.711846,
2005-07-08, 01:55:00,VALID,918.361,VALID,0,VALID,100,VALID,0,VALID,17.2924,VALID,139,VALID,0.950994,
2005-07-08, 01:56:00,VALID,918.385,VALID,0,VALID,100,VALID,-0.0169808,VALID,17.3314,VALID,132,VALID,0.936384,
2005-07-08, 01:57:00,VALID,918.379,VALID,0,VALID,100,VALID,-0.0169808,VALID,17.3576,VALID,125,VALID,0.935014,
2005-07-08, 01:58:00,VALID,918.375,VALID,0,VALID,100,VALID,-0.0169808,VALID,17.351,VALID,123,VALID,0.656977,
2005-07-08, 01:59:00,VALID,918.358,VALID,0,VALID,100,VALID,-0.0169808,VALID,17.3445,VALID,118,VALID,0.662791,
2005-07-08, 02:00:00,VALID,918.355,VALID,0,VALID,100,VALID,-0.0169808,VALID,17.3351,VALID,97,VALID,1.02219,
2005-07-08, 02:01:00,VALID,918.338,VALID,0,VALID,100,VALID,-0.0169808,VALID,17.3219,VALID,102,VALID,0.986607,
2005-07-08, 02:02:00,VALID,918.333,VALID,0,VALID,100,VALID,-0.0339617,VALID,17.3153,VALID,102,VALID,0.857013,
2005-07-08, 02:03:00,VALID,918.349,VALID,0,VALID,100,VALID,-0.0169808,VALID,17.2806,VALID,100,VALID,0.80545,
2005-07-08, 02:04:00,VALID,918.351,VALID,0,VALID,100,VALID,0,VALID,17.2187,VALID,109,VALID,0.860899,
2005-07-08, 02:05:00,VALID,918.374,VALID,0,VALID,100,VALID,-0.101885,VALID,17.1993,VALID,129,VALID,1.07459,
2005-07-08, 02:06:00,VALID,918.376,VALID,0,VALID,100,VALID,-0.0339617,VALID,17.2027,VALID,134,VALID,1.07402,
2005-07-08, 02:07:00,VALID,918.382,VALID,0,VALID,100,VALID,-0.0339617,VALID,17.1928,VALID,108,VALID,1.0407,
2005-07-08, 02:08:00,VALID,918.343,VALID,0,VALID,100,VALID,-0.0509425,VALID,17.1799,VALID,102,VALID,1.58576,
2005-07-08, 02:09:00,VALID,918.329,VALID,0,VALID,100,VALID,-0.0679233,VALID,17.2606,VALID,109,VALID,2.00951,
2005-07-08, 02:10:00,VALID,918.33,VALID,0,VALID,100,VALID,-0.0509425,VALID,17.3284,VALID,123,VALID,0.931996,
2005-07-08, 02:11:00,VALID,918.321,VALID,0,VALID,100,VALID,-0.0679233,VALID,17.3323,VALID,81,VALID,0.630208,
2005-07-08, 02:12:00,VALID,918.342,VALID,0,VALID,100,VALID,-0.0679233,VALID,17.3058,VALID,110,VALID,0.696039,
2005-07-08, 02:13:00,VALID,918.337,VALID,0,VALID,100,VALID,-0.0509425,VALID,17.2705,VALID,103,VALID,0.564215,
2005-07-08, 02:14:00,VALID,918.333,VALID,0,VALID,100,VALID,-0.0849042,VALID,17.2318,VALID,125,VALID,0.659157,
2005-07-08, 02:15:00,VALID,918.326,VALID,0,VALID,100,VALID,-0.0679233,VALID,17.2027,VALID,119,VALID,0.797965,
2005-07-08, 02:16:00,VALID,918.341,VALID,0,VALID,100,VALID,-0.0339617,VALID,17.1606,VALID,131,VALID,0.616279,
2005-07-08, 02:17:00,VALID,918.343,VALID,0,VALID,100,VALID,-0.0509425,VALID,17.132,VALID,131,VALID,0.72603,
2005-07-08, 02:18:00,VALID,918.33,VALID,0,VALID,100,VALID,-0.101885,VALID,17.1064,VALID,116,VALID,0.939596,
2005-07-08, 02:19:00,VALID,918.32,VALID,0,VALID,100,VALID,-0.0509425,VALID,17.0866,VALID,102,VALID,1.13765,
2005-07-08, 02:20:00,VALID,918.316,VALID,0,VALID,100,VALID,-0.0849042,VALID,17.1029,VALID,105,VALID,1.0645,
2005-07-08, 02:21:00,VALID,918.306,VALID,0,VALID,100,VALID,-0.0849042,VALID,17.0997,VALID,107,VALID,0.762074,
2005-07-08, 02:22:00,VALID,918.291,VALID,0,VALID,100,VALID,-0.0339617,VALID,17.0995,VALID,115,VALID,0.976017,
2005-07-08, 02:23:00,VALID,918.275,VALID,0,VALID,100,VALID,-0.0849042,VALID,17.0965,VALID,114,VALID,0.734375,
2005-07-08, 02:24:00,VALID,918.261,VALID,0,VALID,100,VALID,-0.0679233,VALID,17.0702,VALID,112,VALID,0.879764,
2005-07-08, 02:25:00,VALID,918.254,VALID,0,VALID,100,VALID,-0.0849042,VALID,17.0709,VALID,111,VALID,0.849787,
2005-07-08, 02:26:00,VALID,918.264,VALID,0,VALID,100,VALID,-0.0339617,VALID,17.0803,VALID,124,VALID,0.892933,
2005-07-08, 02:27:00,VALID,918.263,VALID,0,VALID,100,VALID,-0.0169808,VALID,17.0668,VALID,127,VALID,0.915015,
2005-07-08, 02:28:00,VALID,918.256,VALID,0,VALID,100,VALID,0.0679233,VALID,17.0562,VALID,126,VALID,0.77484,
2005-07-08, 02:29:00,VALID,918.265,VALID,0,VALID,100,VALID,0.0679233,VALID,17.0629,VALID,126,VALID,0.820833,
2005-07-08, 02:30:00,VALID,918.244,VALID,0,VALID,100,VALID,0.0509425,VALID,17.0599,VALID,126,VALID,0.685865,
2005-07-08, 02:31:00,VALID,918.229,VALID,0,VALID,100,VALID,0.0339617,VALID,17.0435,VALID,126,VALID,0.9641,
2005-07-08, 02:32:00,VALID,918.205,VALID,0,VALID,100,VALID,0,VALID,17.0046,VALID,126,VALID,0.510719,
2005-07-08, 02:33:00,VALID,918.188,VALID,0,VALID,100,VALID,0.0509425,VALID,16.9751,VALID,126,VALID,0.496548,
2005-07-08, 02:34:00,VALID,918.177,VALID,0,VALID,100,VALID,0.0339617,VALID,16.9566,VALID,126,VALID,0.425877,
2005-07-08, 02:35:00,VALID,918.155,VALID,0,VALID,100,VALID,0.0509425,VALID,16.9211,VALID,133,VALID,0.697621,
2005-07-08, 02:36:00,VALID,918.14,VALID,0,VALID,100,VALID,0.0339617,VALID,16.9276,VALID,147,VALID,0.758168,
2005-07-08, 02:37:00,VALID,918.14,VALID,0,VALID,100,VALID,0.0849042,VALID,16.9534,VALID,144,VALID,0.50186,
2005-07-08, 02:38:00,VALID,918.127,VALID,0,VALID,100,VALID,0.0849042,VALID,16.9596,VALID,144,VALID,0.708333,
2005-07-08, 02:39:00,VALID,918.13,VALID,0,VALID,100,VALID,0.0339617,VALID,16.9919,VALID,137,VALID,0.875,
2005-07-08, 02:40:00,VALID,918.142,VALID,0,VALID,100,VALID,0.0849042,VALID,17.0173,VALID,135,VALID,0.576791,
2005-07-08, 02:41:00,VALID,918.138,VALID,0,VALID,100,VALID,0.0679233,VALID,17.0149,VALID,136,VALID,0.738104,
2005-07-08, 02:42:00,VALID,918.147,VALID,0,VALID,100,VALID,0,VALID,16.993,VALID,136,VALID,0.752907,
2005-07-08, 02:43:00,VALID,918.138,VALID,0,VALID,100,VALID,-0.0509425,VALID,16.99,VALID,136,VALID,0.716388,
2005-07-08, 02:44:00,VALID,918.136,VALID,0,VALID,100,VALID,-0.0339617,VALID,16.9736,VALID,136,VALID,0.7883,
2005-07-08, 02:45:00,VALID,918.124,VALID,0,VALID,100,VALID,-0.0169808,VALID,16.9805,VALID,136,VALID,1.04278,
2005-07-08, 02:46:00,VALID,918.114,VALID,0,VALID,100,VALID,-0.0339617,VALID,16.9867,VALID,134,VALID,1.10789,
2005-07-08, 02:47:00,VALID,918.093,VALID,0,VALID,100,VALID,-0.0339617,VALID,17.0128,VALID,123,VALID,1.03571,
2005-07-08, 02:48:00,VALID,918.097,VALID,0,VALID,100,VALID,0,VALID,17.0481,VALID,123,VALID,0.609201,
2005-07-08, 02:49:00,VALID,918.111,VALID,0,VALID,100,VALID,-0.0339617,VALID,17.0384,VALID,123,VALID,0.414418,
2005-07-08, 02:50:00,VALID,918.116,VALID,0,VALID,100,VALID,-0.0169808,VALID,17.0061,VALID,125,VALID,0.685292,
2005-07-08, 02:51:00,VALID,918.126,VALID,0,VALID,100,VALID,-0.0339617,VALID,16.9833,VALID,137,VALID,0.860709,
2005-07-08, 02:52:00,VALID,918.15,VALID,0,VALID,100,VALID,0,VALID,16.9702,VALID,140,VALID,0.946057,
2005-07-08, 02:53:00,VALID,918.163,VALID,0,VALID,100,VALID,-0.0339617,VALID,16.974,VALID,140,VALID,1.08957,
2005-07-08, 02:54:00,VALID,918.149,VALID,0,VALID,100,VALID,-0.0339617,VALID,16.99,VALID,139,VALID,1.11701,
2005-07-08, 02:55:00,VALID,918.151,VALID,0,VALID,100,VALID,-0.0169808,VALID,17.0093,VALID,136,VALID,1.07715,
2005-07-08, 02:56:00,VALID,918.14,VALID,0,VALID,100,VALID,-0.0169808,VALID,17.0126,VALID,129,VALID,1.03711,
2005-07-08, 02:57:00,VALID,918.128,VALID,0,VALID,100,VALID,-0.0339617,VALID,16.9999,VALID,127,VALID,0.64881,
2005-07-08, 02:58:00,VALID,918.132,VALID,0,VALID,100,VALID,0,VALID,16.9573,VALID,120,VALID,0.723785,
2005-07-08, 02:59:00,VALID,918.096,VALID,0,VALID,100,VALID,-0.0679233,VALID,16.9353,VALID,116,VALID,0.814174,
2005-07-08, 03:00:00,VALID,918.077,VALID,0,VALID,100,VALID,-0.0169808,VALID,16.9353,VALID,119,VALID,1.05669,
2005-07-08, 03:01:00,VALID,918.045,VALID,0,VALID,100,VALID,-0.0169808,VALID,16.9388,VALID,133,VALID,0.955543,
2005-07-08, 03:02:00,VALID,918.004,VALID,0,VALID,100,VALID,-0.0339617,VALID,16.9484,VALID,139,VALID,1.62639,
2005-07-08, 03:03:00,VALID,917.976,VALID,0,VALID,100,VALID,-0.0339617,VALID,16.9674,VALID,128,VALID,1.19222,
2005-07-08, 03:04:00,VALID,917.956,VALID,0,VALID,100,VALID,-0.0339617,VALID,16.9771,VALID,127,VALID,1.34859,
2005-07-08, 03:05:00,VALID,917.932,VALID,0,VALID,100,VALID,0,VALID,16.9803,VALID,122,VALID,1.19016,
2005-07-08, 03:06:00,VALID,917.921,VALID,0,VALID,100,VALID,-0.0169808,VALID,16.9932,VALID,130,VALID,1.00057,
2005-07-08, 03:07:00,VALID,917.93,VALID,0,VALID,100,VALID,-0.0339617,VALID,17.0065,VALID,130,VALID,0.993459,
2005-07-08, 03:08:00,VALID,917.937,VALID,0,VALID,100,VALID,-0.0339617,VALID,17.0156,VALID,133,VALID,1.21948,
2005-07-08, 03:09:00,VALID,917.948,VALID,0,VALID,100,VALID,-0.0169808,VALID,17.0579,VALID,120,VALID,1.29724,
2005-07-08, 03:10:00,VALID,917.955,VALID,0,VALID,100,VALID,-0.0339617,VALID,17.1059,VALID,114,VALID,0.992188,
2005-07-08, 03:11:00,VALID,917.966,VALID,0,VALID,100,VALID,0,VALID,17.1545,VALID,111,VALID,0.892987,
2005-07-08, 03:12:00,VALID,917.946,VALID,0,VALID,99.8779,VALID,-0.0339617,VALID,17.1866,VALID,108,VALID,1.3003,
2005-07-08, 03:13:00,VALID,917.944,VALID,0,VALID,99.5425,VALID,-0.0169808,VALID,17.232,VALID,104,VALID,1.02458,
2005-07-08, 03:14:00,VALID,917.921,VALID,0,VALID,99.1941,VALID,-0.0509425,VALID,17.2548,VALID,116,VALID,1.09432,
2005-07-08, 03:15:00,VALID,917.892,VALID,0,VALID,99.1305,VALID,0,VALID,17.2449,VALID,114,VALID,0.951853,
2005-07-08, 03:16:00,VALID,917.869,VALID,0,VALID,99.0313,VALID,0,VALID,17.2412,VALID,115,VALID,1.10671,
2005-07-08, 03:17:00,VALID,917.838,VALID,0,VALID,98.8698,VALID,0,VALID,17.261,VALID,120,VALID,0.944382,
2005-07-08, 03:18:00,VALID,917.826,VALID,0,VALID,98.9067,VALID,0,VALID,17.2481,VALID,114,VALID,1.15861,
2005-07-08, 03:19:00,VALID,917.806,VALID,0,VALID,98.88,VALID,-0.0169808,VALID,17.2576,VALID,109,VALID,1.25591,
2005-07-08, 03:20:00,VALID,917.775,VALID,0,VALID,98.6282,VALID,-0.0339617,VALID,17.274,VALID,114,VALID,0.920785,
2005-07-08, 03:21:00,VALID,917.768,VALID,0,VALID,98.6066,VALID,-0.0339617,VALID,17.2806,VALID,115,VALID,1.06585,
2005-07-08, 03:22:00,VALID,917.763,VALID,0,VALID,98.5494,VALID,-0.0679233,VALID,17.2869,VALID,124,VALID,1.04251,
2005-07-08, 03:23:00,VALID,917.74,VALID,0,VALID,98.5252,VALID,-0.0169808,VALID,17.2935,VALID,120,VALID,0.692294,
2005-07-08, 03:24:00,VALID,917.729,VALID,0,VALID,98.604,VALID,0,VALID,17.2965,VALID,123,VALID,0.926172,
2005-07-08, 03:25:00,VALID,917.709,VALID,0,VALID,98.4705,VALID,-0.0169808,VALID,17.3129,VALID,114,VALID,0.824826,
2005-07-08, 03:26:00,VALID,917.708,VALID,0,VALID,98.2073,VALID,0,VALID,17.2804,VALID,112,VALID,0.900856,
2005-07-08, 03:27:00,VALID,917.698,VALID,0,VALID,98.0738,VALID,-0.0169808,VALID,17.2613,VALID,107,VALID,1.09412,
2005-07-08, 03:28:00,VALID,917.682,VALID,0,VALID,97.9517,VALID,-0.0339617,VALID,17.2258,VALID,103,VALID,0.940104,
2005-07-08, 03:29:00,VALID,917.671,VALID,0,VALID,97.8729,VALID,-0.0169808,VALID,17.1771,VALID,92,VALID,1.09282,
2005-07-08, 03:30:00,VALID,917.665,VALID,0,VALID,97.967,VALID,-0.0169808,VALID,17.138,VALID,97,VALID,1.16444,
2005-07-08, 03:31:00,VALID,917.664,VALID,0,VALID,97.8538,VALID,0,VALID,17.093,VALID,95,VALID,1.29324,
2005-07-08, 03:32:00,VALID,917.677,VALID,0,VALID,97.8067,VALID,0,VALID,17.064,VALID,103,VALID,1.42169,
2005-07-08, 03:33:00,VALID,917.673,VALID,0,VALID,97.7902,VALID,-0.0169808,VALID,17.0349,VALID,104,VALID,1.44895,
2005-07-08, 03:34:00,VALID,917.674,VALID,0,VALID,97.7241,VALID,0,VALID,17.0089,VALID,109,VALID,1.45259,
2005-07-08, 03:35:00,VALID,917.676,VALID,0,VALID,97.7063,VALID,0,VALID,16.9803,VALID,100,VALID,1.2327,
2005-07-08, 03:36:00,VALID,917.663,VALID,0,VALID,97.9822,VALID,0,VALID,16.9678,VALID,105,VALID,1.46389,
2005-07-08, 03:37:00,VALID,917.647,VALID,0,VALID,98.1157,VALID,0,VALID,16.9577,VALID,120,VALID,0.975836,
2005-07-08, 03:38:00,VALID,917.63,VALID,0,VALID,98.2505,VALID,-0.0169808,VALID,16.9676,VALID,116,VALID,1.1379,